[[{"header":{"parameterUnit":"m.s-1","parameterCategory":1,"la1":30.2991,"la2":30.254,"lo1":-89.0895,"lo2":-89.0444,"dy":0.0017,"dx":0.0017,"nx":28,"ny":28,"refTime":"2024-05-08T09:00:00:Z","depth":0,"parameterNumber":2,"parameterNumberName":"U-component_of_WINDS"},"data":[0,0,0,0,0,0,0,0,0,0,0,0,0,0,0,0,0,0,0,0,0,0,0,0,0,0,0,0,0,0,0,0,0,0,0,0,0,0,0,0,0,0,0,0,0,0,0,0,0,0,0,0,0,0,0,0,0,0,0.5889,0.589,0,0.5954,0.5955,0.5956,0.5928,0.5927,0.5925,0.5924,0.5993,0.5996,0.5999,0,0,0,0,0,0,0,0,0,0,0,0,0,0.5741,0.5743,0.5889,0.589,0.589,0.5954,0.5955,0.5956,0.5928,0.5927,0.5925,0.5923,0.5992,0.5996,0.6,0,0,0,0,0,0,0,0,0,0,0,0,0,0.5805,0.5744,0.5889,0.5884,0.5885,0.5954,0.5955,0.5956,0.5929,0.5926,0.5924,0.5922,0.599,0.5995,0.6,0.6078,0,0,0.6015,0.6017,0,0,0,0,0,0,0,0,0.5802,0.5811,0.5884,0.5885,0.5885,0.593,0.5928,0.5997,0.5929,0.5912,0.5924,0.5921,0.5974,0.598,0.5998,0.6081,0.6084,0.6016,0.6019,0.6021,0.6022,0,0,0,0,0,0,0,0.5797,0.5808,0.5915,0.5885,0.5886,0.5879,0.5886,0.5941,0.5956,0.5913,0.5912,0.592,0.5974,0.5993,0.5999,0.6085,0.6016,0.602,0.6023,0.6025,0.6234,0.6236,0,0,0,0,0,0,0.5793,0.5804,0.5913,0.5917,0.5837,0.5884,0.5891,0.5918,0.5955,0.5958,0.5922,0.5918,0.5986,0.5993,0.6002,0.6094,0.6021,0.6026,0.6028,0.6231,0.6234,0.6237,0,0,0,0,0,0,0.579,0.5803,0.591,0.586,0.5873,0.5889,0.592,0.5921,0.594,0.5961,0.5964,0.5938,0.5984,0.5995,0.6059,0.6096,0.6028,0.6032,0.6228,0.6232,0.6236,0.628,0,0,0,0,0,0,0.5785,0.5802,0.5832,0.5861,0.5876,0.5966,0.5922,0.5924,0.5948,0.5944,0.5978,0.5981,0.5983,0.6051,0.6064,0.6102,0.6036,0.6225,0.623,0.6235,0.6276,0.6285,0.6293,0,0,0,0,0,0.578,0.5842,0.5833,0.5846,0.5914,0.5968,0.5977,0.5978,0.5952,0.5982,0.5995,0.598,0.609,0.6058,0.6072,0.6112,0.6223,0.6229,0.6234,0.6272,0.6283,0.6293,0,0,0,0,0,0,0.5818,0.5846,0.5836,0.591,0.5937,0.5963,0.6002,0.599,0.6026,0.6021,0.6021,0.6029,0.6094,0.611,0.6074,0.6188,0.6152,0.6161,0.6176,0.6187,0.6196,0.6191,0.604,0,0,0,0,0,0.5835,0.5877,0.5899,0.5962,0.5975,0.5986,0.601,0.6008,0.6036,0.6048,0.6066,0.6094,0.6135,0.6162,0.6201,0.6277,0.6284,0.6311,0.632,0.6327,0.6335,0.6375,0.6388,0.6256,0.6256,0.6256,0,0,0.5871,0.5891,0.5918,0.597,0.599,0.6033,0.5996,0.6044,0.6076,0.6055,0.6116,0.613,0.6162,0.6232,0.6264,0.6247,0.6373,0.6335,0.634,0.6344,0.6383,0.6395,0.6406,0.626,0.6259,0.6259,0,0,0.5957,0.5977,0.603,0.6051,0.6082,0.6089,0.6101,0.6129,0.6138,0.6198,0.6183,0.6221,0.6292,0.6315,0.6335,0.6428,0.6415,0.644,0.6487,0.6526,0.6537,0.6546,0.6578,0.659,0.6448,0.6448,0.6448,0,0.5997,0.6062,0.606,0.6108,0.6131,0.6113,0.6167,0.6187,0.623,0.6246,0.6226,0.6312,0.6332,0.6407,0.6429,0.6447,0.6461,0.6437,0.6535,0.6545,0.6553,0.6584,0.6596,0.6451,0.6451,0.645,0.645,0,0.6109,0.6154,0.6193,0.6233,0.6261,0.6312,0.6317,0.6345,0.634,0.6348,0.641,0.6433,0.6475,0.6492,0.6489,0.6566,0.6554,0.6535,0.6499,0.6568,0.6597,0.6609,0.6455,0.6454,0.6453,0.6452,0,0,0.6223,0.626,0.6274,0.6291,0.6323,0.6358,0.6407,0.6447,0.6471,0.65,0.6541,0.66,0.6582,0.6605,0.6604,0.6638,0.6708,0.6614,0.6615,0.663,0.6794,0.6808,0.6822,0.6699,0.6702,0.6704,0.6791,0,0.6312,0.6398,0.6397,0.6477,0.6517,0.6499,0.6542,0.6566,0.6575,0.661,0.662,0.6661,0.6634,0.6648,0.6681,0.6693,0.6741,0.6686,0.6738,0.674,0.6731,0.6837,0.6853,0.6934,0.6802,0.6804,0.6805,0,0.6427,0.6458,0.6542,0.6566,0.6583,0.6622,0.6657,0.6692,0.6718,0.6722,0.6747,0.6739,0.6789,0.6751,0.6819,0.6782,0.6803,0.6811,0.6814,0.682,0.6777,0.6845,0.696,0.6972,0.6823,0.6822,0.682,0,0.6501,0.6564,0.6622,0.6637,0.6667,0.6695,0.6708,0.6732,0.6756,0.6787,0.6802,0.6839,0.686,0.6888,0.6891,0.6863,0.6959,0.6922,0.6964,0.6964,0.6985,0.6984,0.7105,0.6999,0.6999,0.6998,0.6998,0,0.66,0.6652,0.6655,0.6691,0.6748,0.6746,0.6802,0.6813,0.6834,0.6872,0.6859,0.6894,0.6895,0.6931,0.6933,0.6988,0.6998,0.7002,0.7002,0.7004,0.7003,0.7017,0.7012,0.7002,0.7001,0.7,0.7,0,0.6692,0.6697,0.6759,0.6781,0.6788,0.6829,0.6848,0.6882,0.6888,0.6935,0.6946,0.6956,0.6998,0.7002,0.7051,0.7053,0.7119,0.7114,0.711,0.7109,0.7151,0.7147,0.7286,0.7304,0.7186,0.7187,0.7188,0,0.6755,0.6795,0.682,0.6844,0.6859,0.6897,0.692,0.6919,0.6944,0.6976,0.7005,0.7045,0.7077,0.7144,0.7156,0.7192,0.7187,0.7233,0.7193,0.7192,0.7187,0.7185,0.7188,0.7242,0.7243,0.7244,0.7245,0,0.6866,0.6866,0.69,0.6935,0.6963,0.699,0.7016,0.7036,0.7037,0.7066,0.7107,0.7132,0.718,0.722,0.7255,0.7269,0.7258,0.7257,0.7269,0.7271,0.7267,0.7269,0.7132,0.7254,0.7253,0.7253,0.7252,0.7252,0.6946,0.6979,0.7002,0.704,0.7058,0.7082,0.7114,0.7124,0.7158,0.7197,0.7194,0.7239,0.7263,0.731,0.7326,0.7362,0.7346,0.7363,0.7368,0.7372,0.7376,0.7261,0.7368,0.7368,0.7368,0.7367,0.7367,0,0.7055,0.7068,0.7103,0.7139,0.7168,0.7153,0.718,0.7206,0.7246,0.7268,0.7299,0.7346,0.7384,0.7398,0.7434,0.746,0.7455,0.747,0.7468,0.7471,0.7388,0.7374,0.7473,0.7473,0.7473,0.7473,0.7473,0.7473,0.7116,0.7171,0.7173,0.7237,0.725,0.7294,0.731,0.7332,0.7349,0.7402,0.7433,0.7441,0.746,0.7498,0.7531,0.7534,0.7548,0.7565,0.7566,0.7488,0.7477,0.7467,0.7454,0.7568,0.7568,0.7647,0.7647,0.7648]},{"header":{"parameterUnit":"m.s-1","parameterCategory":1,"la1":30.2991,"la2":30.254,"lo1":-89.0895,"lo2":-89.0444,"dy":0.0017,"dx":0.0017,"nx":28,"ny":28,"refTime":"2024-05-08T09:00:00:Z","depth":0,"parameterNumber":3,"parameterNumberName":"V-component_of_WINDS"},"data":[0,0,0,0,0,0,0,0,0,0,0,0,0,0,0,0,0,0,0,0,0,0,0,0,0,0,0,0,0,0,0,0,0,0,0,0,0,0,0,0,0,0,0,0,0,0,0,0,0,0,0,0,0,0,0,0,0,0,6.415,6.4151,0,6.4237,6.4238,6.4239,6.4191,6.4189,6.4186,6.4184,6.4267,6.4271,6.4275,0,0,0,0,0,0,0,0,0,0,0,0,0,6.3936,6.394,6.415,6.4151,6.4152,6.4237,6.4238,6.4239,6.4191,6.4188,6.4186,6.4183,6.4265,6.427,6.4276,0,0,0,0,0,0,0,0,0,0,0,0,0,6.4026,6.3941,6.415,6.4139,6.4139,6.4237,6.4238,6.4239,6.4192,6.4188,6.4185,6.4182,6.4264,6.427,6.4277,6.4388,0,0,6.4297,6.43,0,0,0,0,0,0,0,0,6.4021,6.4034,6.4139,6.414,6.414,6.42,6.4193,6.4289,6.4193,6.4172,6.4184,6.418,6.4247,6.4255,6.4279,6.4392,6.4396,6.4297,6.4301,6.4304,6.4306,0,0,0,0,0,0,0,6.4015,6.403,6.4184,6.4141,6.4141,6.4127,6.4136,6.4211,6.4228,6.4173,6.417,6.4181,6.4246,6.4272,6.428,6.4397,6.4297,6.4303,6.4307,6.431,6.4606,6.461,0,0,0,0,0,0,6.401,6.4025,6.4181,6.4187,6.4071,6.4134,6.4144,6.4184,6.4227,6.423,6.4184,6.4179,6.4263,6.4272,6.4283,6.4417,6.4304,6.431,6.4314,6.4603,6.4607,6.4612,0,0,0,0,0,0,6.4006,6.4025,6.4178,6.4105,6.4124,6.4141,6.4187,6.4187,6.4213,6.4235,6.4237,6.4208,6.426,6.4273,6.4363,6.4419,6.4313,6.4319,6.4598,6.4604,6.4609,6.4685,0,0,0,0,0,0,6.4,6.4023,6.4068,6.4107,6.4128,6.4259,6.419,6.4192,6.4226,6.4219,6.4258,6.4261,6.4259,6.4353,6.437,6.4426,6.4324,6.4593,6.4601,6.4608,6.4678,6.4693,6.4706,0,0,0,0,0,6.3993,6.4084,6.407,6.4089,6.4184,6.4262,6.4274,6.4271,6.4231,6.4274,6.4288,6.426,6.441,6.4363,6.4381,6.444,6.4589,6.4598,6.4607,6.4671,6.469,6.4705,0,0,0,0,0,0,6.4049,6.4089,6.4074,6.4182,6.4219,6.4254,6.4309,6.429,6.4338,6.433,6.4322,6.4331,6.4424,6.4441,6.4387,6.455,6.4493,6.4506,6.4536,6.4554,6.4568,6.4561,6.433,0,0,0,0,0,6.4074,6.4137,6.4167,6.4259,6.4279,6.4291,6.4325,6.4319,6.4357,6.4372,6.4392,6.4428,6.4483,6.4519,6.4571,6.468,6.4687,6.4729,6.4743,6.4755,6.4766,6.4824,6.4843,6.464,6.464,6.464,0,0,6.4126,6.4156,6.4195,6.4271,6.43,6.4362,6.4304,6.4373,6.4419,6.4381,6.4468,6.4484,6.4523,6.4623,6.4667,6.4639,6.4823,6.4766,6.4775,6.478,6.4835,6.4854,6.4871,6.4646,6.4645,6.4644,0,0,6.4254,6.4283,6.4363,6.4393,6.4437,6.4445,6.4464,6.4502,6.4512,6.4599,6.4572,6.4625,6.4721,6.475,6.4777,6.4916,6.4891,6.4933,6.5006,6.5063,6.5079,6.5093,6.5142,6.5159,6.4944,6.4944,6.4944,0,6.4312,6.4408,6.4405,6.4477,6.451,6.4482,6.4561,6.4589,6.4648,6.4671,6.4639,6.4758,6.4783,6.4888,6.4923,6.4946,6.4966,6.4928,6.5077,6.5091,6.5104,6.515,6.5169,6.4949,6.4948,6.4947,6.4947,0,6.4477,6.4544,6.4603,6.4663,6.4702,6.4777,6.4784,6.4825,6.4816,6.4826,6.4914,6.4942,6.5,6.5024,6.5015,6.5129,6.511,6.5078,6.502,6.5128,6.5172,6.5189,6.4955,6.4954,6.4952,6.4951,0,0,6.4642,6.4701,6.4722,6.4749,6.4796,6.4846,6.4919,6.4977,6.5012,6.5053,6.5113,6.5194,6.5165,6.5196,6.519,6.524,6.5348,6.5202,6.5202,6.5227,6.5474,6.5497,6.5518,6.5332,6.5335,6.5338,6.547,0,6.4772,6.4903,6.4903,6.5022,6.5083,6.5056,6.5119,6.5154,6.5166,6.5217,6.5228,6.5287,6.5244,6.5263,6.5311,6.5324,6.5397,6.5315,6.5386,6.5389,6.5377,6.5541,6.5566,6.5689,6.5487,6.549,6.5492,0,6.4942,6.4991,6.5117,6.5156,6.5181,6.5238,6.5291,6.5342,6.538,6.5384,6.542,6.5406,6.5478,6.5419,6.5518,6.5462,6.5491,6.5502,6.5507,6.5513,6.5447,6.5551,6.5728,6.5747,6.5519,6.5517,6.5515,0,6.5049,6.5146,6.5234,6.5258,6.5305,6.5346,6.5367,6.5402,6.5437,6.5482,6.5505,6.5557,6.5586,6.5626,6.5626,6.5584,6.5726,6.5667,6.573,6.5731,6.5761,6.5759,6.5946,6.5781,6.5781,6.578,6.578,0,6.5194,6.5272,6.5283,6.5338,6.5424,6.5422,6.5506,6.5523,6.5555,6.561,6.5589,6.5641,6.5639,6.5691,6.5691,6.5772,6.5785,6.579,6.5789,6.5792,6.5791,6.581,6.5801,6.5785,6.5784,6.5783,6.5782,0,6.5328,6.5339,6.5433,6.5471,6.5482,6.5544,6.5575,6.5625,6.5635,6.5705,6.5722,6.5736,6.5797,6.5801,6.587,6.5871,6.5969,6.5959,6.5957,6.5955,6.6018,6.6012,6.6223,6.625,6.6068,6.607,6.6071,0,6.542,6.548,6.5524,6.5561,6.5585,6.5645,6.5681,6.568,6.5718,6.5767,6.5811,6.587,6.5917,6.6014,6.603,6.6083,6.6073,6.6143,6.6081,6.6082,6.6073,6.607,6.6075,6.6155,6.6157,6.6159,6.616,0,6.5582,6.5584,6.5638,6.5695,6.5739,6.5782,6.5823,6.5854,6.5858,6.5901,6.5964,6.6001,6.6073,6.6131,6.6183,6.6202,6.6182,6.618,6.6197,6.6201,6.6197,6.6199,6.599,6.6175,6.6174,6.6173,6.6172,6.6171,6.5697,6.5749,6.5789,6.5849,6.588,6.5919,6.5969,6.5985,6.6038,6.6098,6.6094,6.6163,6.6199,6.6266,6.629,6.6343,6.6318,6.6344,6.635,6.6356,6.6363,6.6189,6.6352,6.6351,6.6351,6.6351,6.635,0,6.5857,6.5882,6.5938,6.5997,6.6044,6.6023,6.6067,6.6107,6.6169,6.6205,6.6253,6.6324,6.6381,6.6401,6.6456,6.6494,6.6486,6.6508,6.6505,6.6509,6.6381,6.6361,6.6513,6.6513,6.6513,6.6513,6.6513,6.6513,6.5946,6.6033,6.604,6.6142,6.6165,6.6234,6.6261,6.6296,6.6324,6.6406,6.6454,6.6467,6.6497,6.6553,6.6604,6.6608,6.6628,6.6655,6.6655,6.6535,6.6518,6.6503,6.6483,6.6659,6.666,6.6779,6.678,6.6781]}]]